Time,TemperatureF,DewpointF,PressureIn,WindDirection,WindDirectionDegrees,WindSpeedMPH,WindSpeedGustMPH,Humidity,HourlyPrecipIn,Conditions,Clouds,dailyrainin,SoftwareType,DateUTC
2013-05-05 00:01:00,48.0,44.0,29.71,South,182,15.0,32.0,87,0.00,,,0.00,,2013-05-05 07:01:00,
2013-05-05 00:11:00,48.0,44.0,29.71,South,182,15.0,32.0,87,0.00,,,0.00,,2013-05-05 07:11:00,
2013-05-05 00:21:00,48.0,44.0,29.72,WSW,248,15.0,30.0,87,0.00,,,0.00,,2013-05-05 07:21:00,
2013-05-05 00:31:00,48.0,44.0,29.72,SE,131,17.0,30.0,87,0.00,,,0.00,,2013-05-05 07:31:00,
2013-05-05 00:42:00,48.0,44.0,29.72,SE,131,17.0,30.0,87,0.00,,,0.00,,2013-05-05 07:42:00,
2013-05-05 00:52:00,47.0,43.0,29.73,South,175,17.0,33.0,86,0.00,,,0.00,,2013-05-05 07:52:00,
2013-05-05 01:02:00,47.0,43.0,29.73,SSE,164,20.0,28.0,87,0.00,,,0.00,,2013-05-05 08:02:00,
2013-05-05 01:11:00,47.0,43.0,29.73,SSE,164,20.0,28.0,87,0.00,,,0.00,,2013-05-05 08:11:00,
2013-05-05 01:21:00,47.0,44.0,29.73,SSE,150,19.0,33.0,88,0.00,,,0.00,,2013-05-05 08:21:00,
2013-05-05 01:31:00,47.0,43.0,29.73,SSW,213,19.0,33.0,87,0.00,,,0.00,,2013-05-05 08:31:00,
2013-05-05 01:42:00,47.0,43.0,29.73,SSW,213,19.0,33.0,87,0.00,,,0.00,,2013-05-05 08:42:00,
2013-05-05 01:53:00,47.0,43.0,29.72,SSE,167,17.0,31.0,87,0.00,,,0.00,,2013-05-05 08:53:00,
2013-05-05 02:01:00,46.0,43.0,29.72,SSE,155,17.0,31.0,88,0.00,,,0.00,,2013-05-05 09:01:00,
2013-05-05 02:11:00,46.0,43.0,29.72,SSE,155,17.0,31.0,88,0.00,,,0.00,,2013-05-05 09:11:00,
2013-05-05 02:21:00,46.0,43.0,29.72,SE,146,16.0,33.0,88,0.00,,,0.00,,2013-05-05 09:21:00,
2013-05-05 02:32:00,46.0,42.0,29.70,SSE,167,19.0,32.0,87,0.00,,,0.00,,2013-05-05 09:32:00,
2013-05-05 02:42:00,46.0,42.0,29.70,SSE,167,19.0,32.0,87,0.00,,,0.00,,2013-05-05 09:42:00,
2013-05-05 02:52:00,46.0,42.0,29.70,SSE,152,20.0,36.0,86,0.00,,,0.00,,2013-05-05 09:52:00,
2013-05-05 03:02:00,46.0,42.0,29.70,South,174,20.0,32.0,85,0.00,,,0.00,,2013-05-05 10:02:00,
2013-05-05 03:12:00,46.0,42.0,29.70,South,174,20.0,32.0,85,0.00,,,0.00,,2013-05-05 10:12:00,
2013-05-05 03:22:00,46.0,42.0,29.70,SW,215,17.0,32.0,86,0.00,,,0.00,,2013-05-05 10:22:00,
2013-05-05 03:32:00,46.0,42.0,29.70,SSE,150,15.0,31.0,86,0.00,,,0.00,,2013-05-05 10:32:00,
2013-05-05 03:42:00,46.0,42.0,29.70,SSE,150,15.0,31.0,86,0.00,,,0.00,,2013-05-05 10:42:00,
2013-05-05 03:52:00,46.0,42.0,29.70,South,182,19.0,33.0,86,0.00,,,0.00,,2013-05-05 10:52:00,
2013-05-05 04:01:00,46.0,42.0,29.70,South,181,17.0,31.0,86,0.00,,,0.00,,2013-05-05 11:01:00,
2013-05-05 04:11:00,46.0,42.0,29.70,South,181,17.0,31.0,86,0.00,,,0.00,,2013-05-05 11:11:00,
2013-05-05 04:21:00,46.0,42.0,29.71,SSE,166,16.0,32.0,85,0.00,,,0.00,,2013-05-05 11:21:00,
2013-05-05 04:32:00,46.0,42.0,29.69,SW,217,20.0,30.0,86,0.00,,,0.00,,2013-05-05 11:32:00,
2013-05-05 04:42:00,46.0,42.0,29.69,SW,217,20.0,30.0,86,0.00,,,0.00,,2013-05-05 11:42:00,
2013-05-05 04:52:00,46.0,42.0,29.69,South,176,15.0,30.0,86,0.00,,,0.00,,2013-05-05 11:52:00,
2013-05-05 05:01:00,46.0,42.0,29.70,SSE,160,13.0,28.0,86,0.00,,,0.00,,2013-05-05 12:01:00,
2013-05-05 05:11:00,46.0,42.0,29.70,SSE,160,13.0,28.0,86,0.00,,,0.00,,2013-05-05 12:11:00,
2013-05-05 05:21:00,46.0,42.0,29.70,SSW,198,17.0,31.0,87,0.00,,,0.00,,2013-05-05 12:21:00,
2013-05-05 05:31:00,46.0,42.0,29.71,SSW,208,16.0,32.0,87,0.00,,,0.00,,2013-05-05 12:31:00,
2013-05-05 05:42:00,46.0,42.0,29.71,SSW,208,16.0,32.0,87,0.00,,,0.00,,2013-05-05 12:42:00,
2013-05-05 05:52:00,46.0,42.0,29.70,SSW,193,16.0,28.0,87,0.00,,,0.00,,2013-05-05 12:52:00,
2013-05-05 06:01:00,46.0,42.0,29.70,SE,134,16.0,31.0,86,0.00,,,0.00,,2013-05-05 13:01:00,
2013-05-05 06:11:00,46.0,42.0,29.70,SE,134,16.0,31.0,86,0.00,,,0.00,,2013-05-05 13:11:00,
2013-05-05 06:21:00,46.0,42.0,29.70,SSW,197,19.0,36.0,87,0.00,,,0.00,,2013-05-05 13:21:00,
2013-05-05 06:32:00,46.0,42.0,29.69,SSW,194,18.0,30.0,87,0.00,,,0.00,,2013-05-05 13:32:00,
2013-05-05 06:42:00,46.0,42.0,29.69,SSW,194,18.0,30.0,87,0.00,,,0.00,,2013-05-05 13:42:00,
2013-05-05 06:52:00,46.0,42.0,29.70,SE,136,21.0,35.0,87,0.00,,,0.00,,2013-05-05 13:52:00,
2013-05-05 07:01:00,46.0,42.0,29.70,SSW,198,15.0,33.0,87,0.00,,,0.00,,2013-05-05 14:01:00,
2013-05-05 07:11:00,46.0,42.0,29.70,SSW,198,15.0,33.0,87,0.00,,,0.00,,2013-05-05 14:11:00,
2013-05-05 07:21:00,46.0,42.0,29.71,WSW,237,23.0,38.0,87,0.00,,,0.00,,2013-05-05 14:21:00,
2013-05-05 07:31:00,46.0,42.0,29.73,SSE,163,22.0,36.0,86,0.00,,,0.00,,2013-05-05 14:31:00,
2013-05-05 07:41:00,46.0,42.0,29.73,SSE,163,22.0,36.0,86,0.00,,,0.00,,2013-05-05 14:41:00,
2013-05-05 07:52:00,47.0,42.0,29.74,SW,223,20.0,31.0,84,0.00,,,0.00,,2013-05-05 14:52:00,
2013-05-05 08:01:00,47.0,42.0,29.75,SSW,193,26.0,36.0,84,0.00,,,0.00,,2013-05-05 15:01:00,
2013-05-05 08:11:00,47.0,42.0,29.75,SSW,193,26.0,36.0,84,0.00,,,0.00,,2013-05-05 15:11:00,
2013-05-05 08:21:00,47.0,43.0,29.75,SW,217,18.0,35.0,85,0.00,,,0.00,,2013-05-05 15:21:00,
2013-05-05 08:32:00,47.0,42.0,29.77,SW,219,21.0,33.0,83,0.00,,,0.00,,2013-05-05 15:32:00,
2013-05-05 08:42:00,47.0,42.0,29.77,SW,219,21.0,33.0,83,0.00,,,0.00,,2013-05-05 15:42:00,
2013-05-05 08:53:00,47.0,43.0,29.78,WSW,240,18.0,33.0,85,0.00,,,0.00,,2013-05-05 15:53:00,
2013-05-05 09:02:00,47.0,42.0,29.78,SSW,196,18.0,31.0,84,0.00,,,0.00,,2013-05-05 16:02:00,
2013-05-05 09:12:00,47.0,42.0,29.78,SSW,196,18.0,31.0,84,0.00,,,0.00,,2013-05-05 16:12:00,
2013-05-05 09:22:00,47.0,43.0,29.80,SW,223,17.0,30.0,86,0.00,,,0.00,,2013-05-05 16:22:00,
2013-05-05 09:32:00,47.0,43.0,29.78,SSW,198,19.0,28.0,87,0.00,,,0.00,,2013-05-05 16:32:00,
2013-05-05 09:42:00,47.0,43.0,29.78,SSW,198,19.0,28.0,87,0.00,,,0.00,,2013-05-05 16:42:00,
2013-05-05 09:52:00,47.0,44.0,29.79,SW,225,15.0,33.0,89,0.00,,,0.00,,2013-05-05 16:52:00,
2013-05-05 10:01:00,47.0,44.0,29.80,SW,225,17.0,28.0,90,0.00,,,0.00,,2013-05-05 17:01:00,
2013-05-05 10:12:00,47.0,44.0,29.80,SW,225,17.0,28.0,90,0.00,,,0.00,,2013-05-05 17:12:00,
2013-05-05 10:23:00,47.0,44.0,29.80,SSW,211,17.0,27.0,90,0.00,,,0.00,,2013-05-05 17:23:00,
2013-05-05 10:31:00,47.0,44.0,29.82,SSE,162,13.0,30.0,90,0.00,,,0.00,,2013-05-05 17:31:00,
2013-05-05 10:41:00,47.0,44.0,29.82,SSE,162,13.0,30.0,90,0.00,,,0.00,,2013-05-05 17:41:00,
2013-05-05 10:52:00,47.0,44.0,29.82,SW,228,11.0,29.0,89,0.00,,,0.00,,2013-05-05 17:52:00,
2013-05-05 11:01:00,47.0,44.0,29.82,SW,223,17.0,27.0,88,0.00,,,0.00,,2013-05-05 18:01:00,
2013-05-05 11:11:00,47.0,44.0,29.82,SW,223,17.0,27.0,88,0.00,,,0.00,,2013-05-05 18:11:00,
2013-05-05 11:21:00,47.0,43.0,29.82,SW,217,18.0,29.0,87,0.00,,,0.00,,2013-05-05 18:21:00,
2013-05-05 11:31:00,48.0,44.0,29.83,South,179,18.0,29.0,85,0.00,,,0.00,,2013-05-05 18:31:00,
2013-05-05 11:41:00,48.0,44.0,29.83,South,179,18.0,29.0,85,0.00,,,0.00,,2013-05-05 18:41:00,
2013-05-05 11:52:00,48.0,43.0,29.83,South,177,15.0,28.0,83,0.00,,,0.00,,2013-05-05 18:52:00,
2013-05-05 12:01:00,48.0,43.0,29.84,SW,226,12.0,27.0,84,0.00,,,0.00,,2013-05-05 19:01:00,
2013-05-05 12:11:00,48.0,43.0,29.84,SW,226,12.0,27.0,84,0.00,,,0.00,,2013-05-05 19:11:00,
2013-05-05 12:21:00,48.0,43.0,29.84,SSE,155,13.0,25.0,84,0.00,,,0.00,,2013-05-05 19:21:00,
2013-05-05 12:32:00,48.0,43.0,29.84,South,178,14.0,26.0,83,0.00,,,0.00,,2013-05-05 19:32:00,
2013-05-05 12:41:00,48.0,43.0,29.84,South,178,14.0,26.0,83,0.00,,,0.00,,2013-05-05 19:41:00,
2013-05-05 12:52:00,49.0,44.0,29.84,South,180,10.0,21.0,82,0.00,,,0.00,,2013-05-05 19:52:00,
2013-05-05 13:01:00,49.0,43.0,29.85,SW,223,9.0,25.0,81,0.00,,,0.00,,2013-05-05 20:01:00,
2013-05-05 13:11:00,49.0,43.0,29.85,SW,223,9.0,25.0,81,0.00,,,0.00,,2013-05-05 20:11:00,
2013-05-05 13:21:00,49.0,43.0,29.84,SW,236,10.0,22.0,80,0.00,,,0.00,,2013-05-05 20:21:00,
2013-05-05 13:31:00,50.0,44.0,29.84,SW,236,7.0,17.0,79,0.00,,,0.00,,2013-05-05 20:31:00,
2013-05-05 13:41:00,50.0,44.0,29.84,SW,236,7.0,17.0,79,0.00,,,0.00,,2013-05-05 20:41:00,
2013-05-05 13:52:00,50.0,43.0,29.85,South,186,11.0,19.0,77,0.00,,,0.00,,2013-05-05 20:52:00,
2013-05-05 14:01:00,50.0,43.0,29.85,South,188,12.0,21.0,76,0.00,,,0.00,,2013-05-05 21:01:00,
2013-05-05 14:11:00,50.0,43.0,29.85,South,188,12.0,21.0,76,0.00,,,0.00,,2013-05-05 21:11:00,
2013-05-05 14:21:00,50.0,43.0,29.85,South,186,13.0,23.0,76,0.00,,,0.00,,2013-05-05 21:21:00,
2013-05-05 14:32:00,50.0,43.0,29.85,WSW,255,13.0,20.0,77,0.00,,,0.00,,2013-05-05 21:32:00,
2013-05-05 14:42:00,50.0,43.0,29.85,WSW,255,13.0,20.0,77,0.00,,,0.00,,2013-05-05 21:42:00,
2013-05-05 14:53:00,50.0,43.0,29.85,SSW,213,8.0,16.0,76,0.00,,,0.00,,2013-05-05 21:53:00,
2013-05-05 15:02:00,50.0,43.0,29.85,WSW,238,9.0,17.0,76,0.00,,,0.00,,2013-05-05 22:02:00,
2013-05-05 15:12:00,50.0,43.0,29.85,WSW,238,9.0,17.0,76,0.00,,,0.00,,2013-05-05 22:12:00,
2013-05-05 15:22:00,51.0,43.0,29.85,SSW,198,7.0,20.0,74,0.00,,,0.00,,2013-05-05 22:22:00,
2013-05-05 15:33:00,51.0,43.0,29.85,SW,227,9.0,17.0,73,0.00,,,0.00,,2013-05-05 22:33:00,
2013-05-05 15:41:00,51.0,43.0,29.85,SW,227,9.0,17.0,73,0.00,,,0.00,,2013-05-05 22:41:00,
2013-05-05 15:52:00,51.0,43.0,29.85,SSW,210,8.0,21.0,73,0.00,,,0.00,,2013-05-05 22:52:00,
2013-05-05 16:02:00,51.0,43.0,29.84,SSW,213,12.0,22.0,73,0.00,,,0.00,,2013-05-05 23:02:00,
2013-05-05 16:11:00,51.0,43.0,29.84,SSW,213,12.0,22.0,73,0.00,,,0.00,,2013-05-05 23:11:00,
2013-05-05 16:21:00,51.0,43.0,29.84,South,186,10.0,20.0,74,0.00,,,0.00,,2013-05-05 23:21:00,
2013-05-05 16:31:00,50.0,42.0,29.84,SSW,207,14.0,20.0,75,0.00,,,0.00,,2013-05-05 23:31:00,
2013-05-05 16:41:00,50.0,42.0,29.84,SSW,207,14.0,20.0,75,0.00,,,0.00,,2013-05-05 23:41:00,
2013-05-05 16:52:00,50.0,42.0,29.84,SSW,192,13.0,22.0,75,0.00,,,0.00,,2013-05-05 23:52:00,
2013-05-05 17:01:00,50.0,42.0,29.84,SW,217,11.0,23.0,75,0.00,,,0.00,,2013-05-06 00:01:00,
2013-05-05 17:11:00,50.0,42.0,29.84,SW,217,11.0,23.0,75,0.00,,,0.00,,2013-05-06 00:11:00,
2013-05-05 17:21:00,50.0,43.0,29.83,SSW,211,7.0,22.0,76,0.00,,,0.00,,2013-05-06 00:21:00,
2013-05-05 17:31:00,50.0,43.0,29.84,SSE,162,7.0,25.0,76,0.00,,,0.00,,2013-05-06 00:31:00,
2013-05-05 17:41:00,50.0,43.0,29.84,SSE,162,7.0,25.0,76,0.00,,,0.00,,2013-05-06 00:41:00,
2013-05-05 17:51:00,49.0,42.0,29.85,SSW,212,12.0,24.0,77,0.00,,,0.00,,2013-05-06 00:51:00,
2013-05-05 18:01:00,49.0,42.0,29.85,SSW,192,11.0,20.0,78,0.00,,,0.00,,2013-05-06 01:01:00,
2013-05-05 18:11:00,49.0,42.0,29.85,SSW,192,11.0,20.0,78,0.00,,,0.00,,2013-05-06 01:11:00,
2013-05-05 18:21:00,49.0,43.0,29.85,SSE,148,11.0,21.0,79,0.00,,,0.00,,2013-05-06 01:21:00,
2013-05-05 18:31:00,49.0,43.0,29.85,SSE,163,5.0,22.0,79,0.00,,,0.00,,2013-05-06 01:31:00,
2013-05-05 18:41:00,49.0,43.0,29.85,SSE,163,5.0,22.0,79,0.00,,,0.00,,2013-05-06 01:41:00,
2013-05-05 18:52:00,48.0,43.0,29.85,SSE,157,3.0,15.0,82,0.00,,,0.00,,2013-05-06 01:52:00,
2013-05-05 19:01:00,48.0,43.0,29.85,WSW,239,10.0,17.0,83,0.00,,,0.00,,2013-05-06 02:01:00,
2013-05-05 19:11:00,48.0,43.0,29.85,WSW,239,10.0,17.0,83,0.00,,,0.00,,2013-05-06 02:11:00,
2013-05-05 19:21:00,48.0,43.0,29.85,SSE,158,9.0,17.0,84,0.00,,,0.00,,2013-05-06 02:21:00,
2013-05-05 19:31:00,48.0,43.0,29.85,SSE,149,9.0,26.0,84,0.00,,,0.00,,2013-05-06 02:31:00,
2013-05-05 19:42:00,48.0,43.0,29.85,SSE,149,9.0,26.0,84,0.00,,,0.00,,2013-05-06 02:42:00,
2013-05-05 19:51:00,48.0,44.0,29.85,SW,236,9.0,16.0,85,0.00,,,0.00,,2013-05-06 02:51:00,
2013-05-05 20:01:00,47.0,43.0,29.85,SSE,161,10.0,18.0,86,0.00,,,0.00,,2013-05-06 03:01:00,
2013-05-05 20:11:00,47.0,43.0,29.85,SSE,161,10.0,18.0,86,0.00,,,0.00,,2013-05-06 03:11:00,
2013-05-05 20:22:00,47.0,43.0,29.84,SW,216,12.0,22.0,87,0.00,,,0.00,,2013-05-06 03:22:00,
2013-05-05 20:32:00,47.0,43.0,29.85,SSW,197,9.0,16.0,86,0.00,,,0.00,,2013-05-06 03:32:00,
2013-05-05 20:42:00,47.0,43.0,29.85,SSW,197,9.0,16.0,86,0.00,,,0.00,,2013-05-06 03:42:00,
2013-05-05 20:52:00,47.0,42.0,29.86,SE,144,9.0,21.0,84,0.00,,,0.00,,2013-05-06 03:52:00,
2013-05-05 21:02:00,47.0,42.0,29.86,SE,126,7.0,19.0,84,0.00,,,0.00,,2013-05-06 04:02:00,
2013-05-05 21:12:00,47.0,42.0,29.86,SE,126,7.0,19.0,84,0.00,,,0.00,,2013-05-06 04:12:00,
2013-05-05 21:23:00,47.0,43.0,29.86,SE,146,9.0,22.0,85,0.00,,,0.00,,2013-05-06 04:23:00,
2013-05-05 21:32:00,47.0,43.0,29.86,SW,217,8.0,25.0,87,0.00,,,0.00,,2013-05-06 04:32:00,
2013-05-05 21:42:00,47.0,43.0,29.86,SW,217,8.0,25.0,87,0.00,,,0.00,,2013-05-06 04:42:00,
2013-05-05 21:52:00,47.0,43.0,29.86,South,170,11.0,23.0,85,0.00,,,0.00,,2013-05-06 04:52:00,
2013-05-05 22:02:00,47.0,43.0,29.86,SW,232,17.0,25.0,85,0.00,,,0.00,,2013-05-06 05:02:00,
2013-05-05 22:12:00,47.0,43.0,29.86,SW,232,17.0,25.0,85,0.00,,,0.00,,2013-05-06 05:12:00,
2013-05-05 22:22:00,47.0,43.0,29.86,South,188,16.0,23.0,85,0.00,,,0.00,,2013-05-06 05:22:00,
2013-05-05 22:31:00,47.0,43.0,29.86,SSE,159,15.0,29.0,86,0.00,,,0.00,,2013-05-06 05:31:00,
2013-05-05 22:42:00,47.0,43.0,29.86,SSE,159,15.0,29.0,86,0.00,,,0.00,,2013-05-06 05:42:00,
2013-05-05 22:52:00,46.0,42.0,29.84,SSE,151,10.0,27.0,87,0.00,,,0.00,,2013-05-06 05:52:00,
2013-05-05 23:02:00,46.0,43.0,29.84,SW,215,15.0,27.0,88,0.00,,,0.00,,2013-05-06 06:02:00,
2013-05-05 23:12:00,46.0,43.0,29.84,SW,215,15.0,27.0,88,0.00,,,0.00,,2013-05-06 06:12:00,
2013-05-05 23:21:00,46.0,43.0,29.83,SW,229,14.0,29.0,89,0.00,,,0.00,,2013-05-06 06:21:00,
2013-05-05 23:31:00,46.0,43.0,29.84,SSE,161,17.0,26.0,89,0.01,,,0.01,,2013-05-06 06:31:00,
2013-05-05 23:41:00,46.0,43.0,29.84,SSE,161,17.0,26.0,89,0.01,,,0.01,,2013-05-06 06:41:00,
2013-05-05 23:52:00,46.0,43.0,29.84,SW,235,12.0,24.0,90,0.02,,,0.02,,2013-05-06 06:52:00,